Wind_Speed
4 4 5 6 6 7 10 13 14 14 12 10 10 9 9 9 7 4 3 1 1 2 3 4 5 5 5 5 4 3 3 3 3 3 3 4 4 4 3 3 2 2 2 2 2 2 2 2 3
3 3 4 5 5 6 9 13 14 14 13 11 10 10 8 7 6 4 3 1 1 2 3 5 5 6 6 6 5 4 3 3 3 3 3 3 4 4 3 3 3 2 2 2 2 2 3 2 3
1 2 2 3 4 6 10 13 14 14 14 12 11 10 8 7 5 4 3 1 1 2 3 4 5 6 6 6 5 4 4 4 3 3 4 4 4 4 3 3 3 3 3 3 3 3 3 3 3
1 1 1 2 2 5 8 11 13 14 14 14 12 11 10 8 6 4 4 3 1 1 3 4 6 6 7 7 6 5 4 4 4 4 4 4 4 4 4 3 3 3 3 3 3 3 3 3 3
2 1 0 1 2 3 6 10 12 14 14 14 13 12 11 9 8 5 4 4 2 0 1 4 6 7 7 8 7 7 6 5 4 4 4 3 4 4 3 3 4 3 3 4 4 4 4 3 3
2 2 2 0 1 2 5 7 11 14 16 14 13 12 11 10 9 6 5 4 3 2 1 3 5 7 7 8 8 8 7 6 5 5 4 4 4 4 4 4 4 4 3 4 4 4 4 3 3
3 2 2 2 2 3 4 7 9 12 15 14 13 13 12 11 8 6 5 4 4 3 3 3 5 7 8 8 9 8 8 7 6 6 5 4 4 4 4 4 4 4 4 4 5 5 4 4 3
3 3 3 3 3 3 3 6 10 12 14 14 14 14 13 11 9 8 6 4 4 4 4 4 5 7 8 9 9 9 8 8 7 6 5 5 5 5 5 5 5 5 5 5 5 5 4 4 3
4 5 4 2 2 3 4 7 10 11 13 14 14 14 13 11 10 9 7 5 4 4 4 4 5 6 7 9 10 10 9 8 7 6 6 5 5 5 5 5 5 6 6 5 5 5 4 3 3
7 7 5 3 2 3 5 9 10 12 14 15 14 14 13 11 10 9 7 6 5 5 5 4 5 6 8 9 10 10 10 9 8 8 7 6 6 6 5 5 6 6 6 6 6 5 4 3 3
9 10 9 7 6 6 7 10 11 12 13 13 14 13 13 12 11 8 7 7 6 6 6 6 6 8 9 10 10 11 12 11 10 9 8 8 7 7 6 6 6 6 6 6 6 5 4 3 2
12 12 11 10 8 9 10 10 11 13 13 13 13 12 13 12 11 8 7 8 8 7 7 7 8 9 10 11 12 12 13 13 12 10 9 8 8 7 6 6 6 6 5 6 5 4 3 2 2
13 14 13 12 11 11 10 11 12 14 14 14 14 14 13 12 11 9 8 8 9 9 9 8 9 11 12 12 13 14 14 14 13 12 11 9 8 8 8 7 6 5 5 5 5 4 3 2 2
13 14 13 12 11 11 11 12 12 14 13 14 14 13 14 13 12 11 10 11 10 9 10 9 10 12 12 13 14 15 15 15 14 13 12 11 9 8 7 6 6 6 5 4 4 4 3 2 2
13 12 11 9 10 11 11 10 10 11 13 15 16 15 13 12 12 12 13 13 11 10 11 11 11 12 12 14 15 15 16 16 15 14 13 12 10 8 7 6 6 6 5 4 4 4 3 3 2
12 10 9 8 8 9 11 10 10 11 14 17 18 17 14 12 13 13 14 13 12 12 12 13 11 12 13 14 14 15 17 16 16 16 14 14 12 10 8 7 6 6 5 5 5 5 4 4 3
10 10 10 8 7 9 12 11 10 12 15 17 18 17 15 14 13 13 14 13 13 13 13 12 10 11 11 13 14 16 17 18 18 17 16 15 14 11 9 8 7 6 5 6 6 6 5 5 4
12 13 12 8 7 10 12 12 12 12 16 17 16 17 15 15 15 14 14 13 13 12 12 12 10 11 12 12 14 15 17 18 19 18 18 17 15 13 11 9 9 7 6 7 7 7 6 5 5
15 15 13 8 7 9 11 11 12 14 15 17 17 15 14 15 15 14 14 13 12 12 11 10 11 10 11 11 13 14 17 18 18 18 18 17 15 14 13 12 10 9 7 7 7 8 7 6 6
17 17 13 9 8 10 11 11 13 15 17 19 19 16 13 14 13 12 12 12 12 11 10 10 9 8 9 11 13 14 18 18 18 18 17 16 15 15 14 13 12 10 8 8 8 8 8 7 7
17 16 14 12 12 13 14 14 14 16 19 19 19 15 12 14 13 12 11 12 12 11 10 10 9 8 8 10 13 16 18 18 18 17 16 15 15 16 15 13 12 11 10 8 8 9 8 8 8
17 15 15 15 16 16 17 18 17 18 19 19 16 14 13 12 11 11 11 11 11 10 10 9 9 8 8 9 11 14 16 18 19 18 17 16 15 16 16 15 13 12 11 9 9 9 9 9 9
16 15 16 17 18 19 20 20 18 18 17 16 15 13 11 9 9 10 10 10 10 10 10 9 8 8 8 10 11 13 17 18 19 19 18 16 16 16 16 16 15 14 12 11 10 10 11 10 10
14 15 17 19 19 18 18 20 19 19 18 15 13 10 7 8 8 9 10 10 9 10 10 9 8 7 6 8 11 13 16 18 19 19 17 16 16 16 16 15 16 16 14 13 12 12 12 12 11
15 16 17 18 17 14 14 16 17 17 17 15 12 8 6 6 8 9 10 10 9 9 9 8 7 6 7 9 11 13 15 17 19 19 18 17 17 17 17 16 16 16 15 14 14 14 13 12 12
15 16 16 16 15 13 12 13 13 14 15 13 10 7 6 6 7 8 9 9 10 9 9 8 7 5 5 8 11 13 15 17 20 20 19 18 18 18 18 18 17 17 16 16 15 15 14 13 13
15 16 15 15 15 15 14 13 13 13 13 10 9 8 7 7 8 8 8 9 10 10 9 8 6 5 6 8 9 12 15 18 20 20 20 19 19 19 19 19 19 18 17 16 16 16 16 16 15
14 14 16 18 18 17 16 15 13 12 12 11 10 9 8 8 8 9 9 9 9 9 8 7 6 6 6 8 9 11 14 18 20 21 21 20 19 19 19 19 19 19 18 17 16 17 17 17 17
16 17 19 20 21 21 19 16 15 14 13 12 11 11 11 10 10 10 10 10 9 9 8 7 6 6 6 7 9 10 12 15 17 19 20 20 20 19 19 19 19 19 19 18 18 18 18 18 18
19 19 20 21 21 22 22 19 17 17 16 15 14 13 13 12 12 13 12 11 10 9 7 7 6 6 6 7 8 8 10 13 16 17 19 20 20 20 20 19 19 19 19 19 20 20 20 20 20
Wind_Direction
69 81 86 79 64 68 51 39 31 19 15 13 10 5 3 13 19 8 346 345 268 233 215 206 201 204 204 213 220 233 243 263 283 293 305 317 324 328 330 333 339 341 347 357 8 9 8 12 22
63 80 92 89 77 60 49 38 24 10 2 5 5 1 359 10 15 7 351 321 247 236 213 204 207 207 209 217 222 236 244 252 274 288 301 313 318 318 318 320 320 319 325 336 344 350 350 352 5
29 69 90 106 87 58 50 36 19 5 357 356 358 357 359 4 16 10 3 351 249 233 213 207 210 212 215 220 222 233 242 256 267 281 294 304 306 309 310 312 310 309 314 319 328 333 337 342 355
343 56 107 123 101 65 43 28 12 358 352 350 352 358 2 3 9 9 3 9 357 222 209 213 214 216 218 222 223 227 235 250 262 275 284 294 295 298 301 304 302 307 310 311 315 320 326 336 348
329 336 173 126 61 67 37 17 6 356 349 346 348 353 357 4 6 4 5 6 4 352 201 210 216 219 222 225 226 227 232 241 253 270 276 285 288 289 291 294 297 300 304 308 309 313 322 332 340
313 323 314 348 63 28 17 15 354 344 342 344 347 352 358 360 2 2 1 2 357 355 291 224 224 226 229 228 229 230 233 239 246 257 264 273 279 284 287 286 293 294 298 301 304 309 316 318 321
295 290 297 320 4 21 15 4 345 336 336 341 345 348 353 353 356 356 351 351 347 326 298 262 240 232 230 231 232 232 233 235 242 250 256 264 270 278 277 278 288 292 291 292 296 300 303 301 302
269 261 265 280 0 31 34 355 337 335 334 342 346 348 349 353 356 353 345 343 336 318 294 267 249 234 232 233 233 234 232 230 237 245 254 264 269 273 271 271 281 285 286 289 290 291 295 296 293
248 248 253 278 10 11 0 335 323 325 330 338 342 341 343 351 350 348 341 330 323 307 286 271 263 237 232 234 233 233 229 227 232 241 248 256 260 264 268 269 273 277 280 283 286 284 291 291 285
239 240 246 262 285 319 325 312 307 316 319 326 332 335 336 344 344 345 337 325 315 306 293 277 268 250 241 239 236 235 231 228 231 238 245 249 255 259 262 262 265 273 279 278 279 281 285 279 272
241 239 242 244 254 281 294 295 302 303 312 319 326 333 335 337 340 338 334 323 310 299 291 279 271 258 246 238 238 237 231 230 232 237 242 245 248 253 259 258 261 271 278 276 278 284 283 272 268
244 241 242 244 244 256 273 282 290 297 308 316 320 325 326 328 334 337 333 318 313 300 283 276 271 267 257 245 242 236 232 229 228 231 235 239 242 245 252 254 264 268 271 275 279 282 280 266 260
247 243 240 241 243 249 260 272 279 291 301 310 317 317 315 321 329 331 327 319 314 300 284 275 272 267 261 249 248 239 234 230 225 227 230 232 237 241 249 251 261 258 263 268 270 267 263 249 246
252 246 241 239 243 247 250 265 277 289 306 312 315 320 319 321 329 328 324 318 311 301 290 281 274 269 266 250 245 237 232 227 221 223 226 227 231 236 246 247 247 248 255 254 244 242 243 235 222
252 248 242 236 237 239 246 257 274 293 304 310 313 317 318 326 330 326 320 314 308 300 292 286 276 267 262 250 242 235 227 222 218 220 223 223 224 227 235 241 241 244 242 233 223 221 213 208 194
251 240 225 219 216 228 245 251 266 287 302 307 308 317 322 331 327 328 322 312 307 299 294 289 282 269 262 249 237 229 220 219 217 217 218 217 218 221 226 229 232 234 227 220 218 215 205 198 190
241 222 209 211 226 242 255 263 269 284 297 304 307 316 325 330 330 332 326 317 313 305 298 290 282 272 263 246 233 224 219 216 215 216 214 213 214 217 220 221 225 224 219 218 216 211 201 193 192
226 216 213 220 247 257 255 262 272 287 296 301 307 316 322 328 333 331 325 321 318 313 300 294 282 272 262 246 233 222 216 213 215 212 210 211 212 216 218 220 219 219 218 216 210 204 202 198 199
227 224 222 224 250 258 260 272 286 290 295 299 304 312 320 327 330 330 325 322 317 316 308 296 286 273 258 244 234 227 214 212 211 208 207 209 212 215 218 219 220 222 222 217 211 206 206 204 202
231 230 228 228 246 255 264 276 287 291 294 298 301 308 315 323 326 330 330 328 320 319 318 312 300 274 250 237 231 220 210 211 210 205 203 206 211 214 215 216 219 220 218 213 211 207 207 206 202
231 234 232 232 243 253 262 267 272 278 284 290 298 302 310 321 324 325 328 327 324 322 320 312 304 280 258 240 225 214 206 209 209 203 201 205 212 212 212 213 216 217 218 214 210 208 208 204 199
230 229 230 232 238 245 255 262 264 273 279 284 293 302 304 315 322 322 324 325 325 322 321 313 302 290 262 240 221 210 207 205 204 203 204 208 211 210 212 213 214 214 215 214 211 206 206 204 201
230 228 231 235 242 247 252 259 260 269 276 283 287 297 302 311 321 326 328 328 324 321 321 314 302 286 266 235 215 209 205 203 201 203 204 209 209 210 212 214 213 212 214 212 209 207 206 206 205
229 230 232 236 244 252 256 258 259 265 270 273 283 290 299 319 324 333 334 333 327 324 324 317 307 293 271 230 214 207 205 204 202 202 206 208 208 208 209 212 211 212 214 212 210 210 210 213 213
231 233 235 239 246 250 256 260 264 270 270 269 274 276 299 322 325 334 335 335 330 327 325 318 312 292 258 231 220 215 208 206 204 202 204 206 207 209 211 212 211 213 217 217 217 215 216 220 222
235 235 238 242 242 243 252 263 271 278 276 268 268 272 293 316 321 329 326 333 333 329 325 321 307 288 259 234 226 219 210 204 204 203 204 206 209 211 214 216 216 217 220 222 220 220 224 227 230
231 233 236 240 237 242 253 263 274 283 281 271 271 280 300 311 309 324 323 323 324 327 327 321 303 285 261 240 230 221 212 207 206 206 207 210 213 215 218 219 218 219 222 224 224 228 232 235 237
226 229 233 236 241 246 251 264 279 284 294 282 282 280 288 300 305 316 318 316 317 318 321 319 298 286 271 246 231 219 212 209 210 211 211 214 216 218 221 222 221 221 223 226 229 234 238 241 242
224 226 233 238 242 248 253 259 273 284 289 284 287 287 287 298 300 312 314 311 312 312 313 311 304 284 273 245 233 222 213 212 211 212 213 215 217 221 222 223 224 225 228 231 235 238 241 244 246
226 229 233 239 243 246 253 257 267 274 280 282 283 282 283 289 300 305 308 309 308 309 308 302 297 287 266 244 232 222 212 212 212 213 215 218 221 222 224 225 226 229 232 235 238 242 243 246 247
Height
5900 5899 5898 5898 5898 5896 5895 5894 5893 5893 5892 5892 5891 5890 5890 5890 5890 5891 5888 5887 5888 5888 5888 5889 5890 5891 5892 5893 5894 5894 5895 5896 5896 5896 5896 5896 5896 5896 5895 5895 5894 5894 5893 5892 5892 5891 5891 5890 5890
5900 5899 5899 5899 5897 5895 5895 5894 5894 5893 5892 5891 5891 5891 5890 5890 5889 5888 5887 5887 5887 5887 5888 5888 5889 5890 5892 5893 5894 5895 5895 5896 5896 5897 5897 5897 5897 5896 5896 5895 5895 5894 5893 5893 5892 5892 5891 5891 5890
5899 5899 5899 5898 5897 5895 5894 5894 5894 5893 5892 5891 5891 5891 5890 5890 5889 5887 5887 5886 5886 5887 5887 5888 5889 5890 5891 5892 5893 5894 5895 5896 5896 5897 5897 5897 5897 5897 5896 5896 5895 5894 5894 5893 5893 5892 5891 5891 5890
5899 5899 5899 5898 5896 5895 5894 5893 5894 5893 5893 5892 5891 5890 5890 5890 5888 5887 5885 5885 5885 5886 5886 5887 5888 5889 5891 5892 5893 5894 5895 5896 5896 5897 5897 5897 5897 5897 5896 5896 5895 5895 5894 5894 5893 5892 5892 5891 5891
5899 5899 5899 5897 5896 5895 5894 5894 5893 5893 5893 5892 5891 5890 5890 5889 5888 5886 5884 5884 5884 5884 5885 5886 5887 5888 5890 5891 5892 5893 5894 5895 5896 5896 5897 5897 5897 5897 5896 5896 5895 5895 5894 5894 5893 5892 5892 5891 5891
5899 5899 5898 5896 5895 5894 5893 5893 5892 5893 5893 5892 5891 5890 5889 5888 5887 5885 5883 5883 5883 5883 5884 5885 5886 5887 5889 5890 5891 5892 5893 5894 5895 5896 5896 5896 5897 5897 5896 5896 5895 5895 5894 5894 5893 5893 5892 5892 5891
5899 5898 5897 5896 5895 5894 5894 5892 5892 5892 5892 5892 5891 5890 5888 5888 5886 5885 5883 5882 5883 5883 5883 5884 5885 5886 5887 5889 5890 5891 5892 5893 5894 5895 5895 5896 5896 5896 5896 5896 5895 5895 5894 5894 5893 5893 5892 5891 5891
5898 5898 5897 5895 5894 5893 5893 5892 5892 5891 5891 5891 5891 5889 5888 5887 5885 5884 5883 5882 5882 5882 5882 5883 5884 5885 5886 5887 5888 5889 5890 5891 5893 5894 5894 5895 5895 5895 5895 5895 5895 5895 5894 5893 5893 5892 5892 5891 5891
5897 5898 5895 5894 5894 5893 5892 5892 5892 5891 5891 5891 5890 5889 5887 5886 5885 5883 5882 5881 5881 5881 5881 5881 5882 5883 5884 5885 5886 5888 5889 5890 5891 5892 5893 5894 5894 5895 5895 5894 5894 5894 5893 5893 5892 5892 5891 5891 5890
5896 5896 5895 5894 5893 5892 5892 5892 5891 5891 5891 5890 5889 5888 5886 5885 5884 5883 5881 5880 5880 5880 5880 5880 5881 5882 5882 5883 5885 5886 5887 5888 5889 5891 5892 5893 5893 5893 5893 5893 5893 5893 5893 5892 5891 5891 5891 5891 5890
5894 5894 5893 5892 5891 5891 5891 5891 5891 5891 5890 5890 5888 5887 5885 5883 5882 5882 5880 5879 5879 5879 5878 5879 5879 5879 5880 5881 5882 5884 5885 5886 5887 5889 5890 5891 5892 5892 5892 5892 5892 5892 5892 5891 5891 5890 5890 5890 5890
5893 5892 5891 5891 5890 5890 5890 5890 5890 5889 5889 5888 5887 5886 5884 5882 5881 5880 5879 5878 5877 5877 5876 5876 5876 5876 5877 5878 5879 5881 5882 5884 5885 5887 5888 5889 5890 5891 5891 5891 5891 5891 5891 5890 5890 5890 5889 5889 5890
5890 5889 5889 5888 5888 5888 5888 5888 5888 5888 5887 5887 5886 5885 5883 5881 5879 5878 5877 5876 5875 5874 5873 5873 5873 5873 5874 5875 5876 5878 5879 5881 5883 5884 5886 5887 5889 5889 5890 5890 5890 5890 5890 5890 5889 5889 5889 5889 5889
5887 5886 5886 5886 5885 5886 5886 5886 5886 5885 5885 5884 5883 5882 5881 5879 5877 5875 5874 5873 5872 5871 5870 5869 5870 5870 5871 5872 5873 5874 5876 5878 5880 5882 5884 5885 5887 5888 5889 5889 5889 5889 5889 5889 5889 5889 5889 5888 5889
5884 5884 5884 5884 5883 5883 5884 5884 5884 5883 5883 5882 5881 5879 5877 5876 5874 5872 5871 5870 5869 5867 5866 5866 5866 5867 5867 5868 5869 5871 5873 5875 5878 5880 5881 5883 5885 5886 5887 5887 5888 5888 5888 5888 5888 5889 5888 5888 5889
5881 5881 5882 5882 5882 5882 5883 5882 5882 5881 5881 5880 5879 5877 5875 5873 5872 5869 5867 5865 5864 5864 5863 5862 5861 5862 5863 5864 5865 5867 5869 5872 5874 5876 5879 5881 5883 5884 5885 5886 5887 5887 5887 5887 5888 5888 5888 5889 5889
5878 5879 5879 5880 5880 5880 5880 5879 5879 5878 5878 5877 5876 5874 5872 5870 5868 5866 5864 5862 5861 5859 5858 5857 5857 5857 5858 5860 5861 5863 5865 5868 5871 5873 5876 5878 5880 5882 5883 5884 5885 5886 5886 5886 5887 5888 5888 5888 5889
5875 5875 5876 5877 5877 5877 5876 5876 5876 5876 5876 5875 5874 5872 5870 5868 5865 5863 5861 5859 5857 5855 5854 5852 5852 5853 5854 5855 5857 5860 5862 5864 5867 5870 5873 5875 5877 5879 5881 5883 5884 5884 5885 5886 5886 5887 5888 5888 5888
5872 5872 5873 5873 5874 5873 5873 5873 5873 5873 5873 5872 5871 5869 5868 5865 5862 5860 5858 5855 5854 5852 5851 5850 5850 5850 5851 5851 5853 5856 5859 5862 5864 5867 5870 5872 5875 5877 5879 5881 5882 5883 5884 5885 5885 5886 5887 5888 5888
5868 5869 5870 5871 5871 5871 5870 5870 5870 5870 5870 5869 5868 5867 5865 5863 5861 5859 5857 5855 5852 5851 5849 5848 5847 5847 5847 5848 5850 5853 5856 5859 5861 5864 5867 5869 5872 5874 5877 5878 5880 5881 5882 5883 5884 5885 5886 5887 5887
5865 5866 5867 5868 5869 5868 5868 5868 5868 5868 5867 5866 5865 5864 5862 5861 5859 5858 5855 5853 5851 5849 5847 5846 5845 5844 5844 5845 5847 5849 5852 5856 5859 5862 5864 5867 5869 5872 5874 5876 5878 5879 5880 5881 5883 5884 5885 5886 5887
5861 5863 5864 5865 5865 5865 5866 5866 5866 5866 5865 5864 5862 5861 5859 5859 5858 5856 5854 5851 5849 5848 5846 5845 5844 5842 5842 5843 5844 5847 5850 5853 5856 5859 5862 5864 5867 5869 5871 5873 5875 5877 5879 5880 5881 5882 5883 5885 5885
5857 5859 5860 5861 5862 5862 5863 5863 5864 5863 5862 5861 5859 5858 5856 5857 5856 5854 5851 5849 5848 5846 5845 5843 5842 5841 5840 5840 5842 5844 5848 5851 5853 5856 5859 5862 5864 5867 5869 5871 5873 5875 5876 5878 5879 5880 5882 5883 5884
5853 5855 5856 5857 5858 5859 5860 5859 5860 5859 5859 5858 5857 5856 5854 5854 5853 5851 5849 5847 5846 5844 5843 5841 5839 5838 5837 5838 5840 5842 5845 5848 5851 5854 5857 5859 5862 5864 5866 5869 5871 5872 5874 5875 5877 5878 5880 5881 5882
5850 5852 5853 5854 5855 5856 5856 5856 5856 5856 5855 5855 5854 5854 5853 5852 5850 5849 5847 5846 5844 5842 5841 5839 5838 5837 5837 5838 5838 5841 5843 5846 5849 5852 5854 5857 5860 5862 5864 5866 5868 5870 5871 5873 5875 5876 5878 5879 5880
5846 5848 5850 5851 5852 5853 5853 5852 5853 5852 5850 5851 5851 5851 5850 5849 5848 5847 5846 5844 5843 5841 5839 5838 5836 5835 5835 5836 5837 5839 5841 5843 5846 5849 5852 5854 5857 5859 5861 5863 5865 5867 5869 5870 5872 5874 5875 5876 5877
5842 5844 5846 5848 5848 5849 5849 5850 5849 5849 5847 5847 5848 5848 5848 5847 5846 5845 5844 5843 5841 5840 5838 5836 5835 5834 5834 5834 5835 5836 5838 5841 5843 5846 5849 5851 5854 5856 5858 5860 5862 5864 5866 5867 5869 5871 5872 5873 5874
5839 5841 5842 5843 5844 5844 5846 5846 5846 5845 5845 5845 5845 5845 5845 5845 5844 5842 5842 5841 5839 5838 5836 5835 5834 5833 5832 5832 5833 5834 5836 5838 5840 5843 5845 5848 5850 5853 5855 5857 5859 5861 5862 5864 5866 5867 5868 5869 5870
5835 5837 5838 5839 5840 5841 5842 5845 5843 5843 5842 5842 5842 5842 5842 5842 5842 5840 5839 5838 5837 5836 5834 5833 5832 5831 5830 5830 5831 5832 5833 5835 5837 5840 5842 5845 5847 5849 5851 5853 5855 5857 5859 5861 5862 5863 5864 5865 5866
5830 5832 5833 5835 5836 5837 5837 5842 5839 5839 5839 5839 5839 5838 5838 5838 5838 5838 5837 5836 5835 5833 5832 5832 5831 5830 5829 5828 5829 5830 5831 5833 5835 5837 5839 5841 5843 5845 5848 5850 5852 5854 5855 5857 5858 5859 5860 5861 5861